Regional Weather Roundup
Issued by NWS Boston, MA

Home | Current Version | Previous Version | Text Only | Print | Product List | Glossary On
Versions: 1 2 3 4 5 6 7 8 9 10 11 12 13 14 15 16 17 18 19 20 21 22 23 24 25 26 27 28 29 30 31 32 33 34 35 36 37 38 39 40 41 42 43 44 45 46 47 48 49 50
000
ASUS41 KBOX 191310
RWRBOX

REGIONAL WEATHER ROUNDUP
NATIONAL WEATHER SERVICE TAUNTON MA
900 AM EDT FRI SEP 19 2014

NOTE:  "FAIR" INDICATES FEW OR NO CLOUDS BELOW 12,000 FEET WITH NO
SIGNIFICANT WEATHER AND/OR OBSTRUCTIONS TO VISIBILITY.  THE FOLLOWING
OBSERVATION LOCATIONS DO NOT REPORT PRESENT WEATHER...PROVINCETOWN...
SMITHFIELD...BLOCK ISLAND...KEENE...AND OXFORD.

MAZALL-191400-
EASTERN MASSACHUSETTS

CITY           SKY/WX    TMP DP  RH WIND       PRES   REMARKS
BOSTON         MOSUNNY   51  34  52 N12       30.37R
BEVERLY        MOSUNNY   49  34  56 NE9       30.36R
LAWRENCE       MOSUNNY   47  33  58 NE12      30.39R
BEDFORD        SUNNY     48  33  56 N12       30.36R
BLUE HILL        N/A     49  32  52 NE8G18    30.34R
NORWOOD        SUNNY     51  31  46 N8        30.37R
MARSHFIELD     NOT AVBL
PLYMOUTH       PTSUNNY   53  36  52 N18       30.34R
TAUNTON        SUNNY     54  37  52 N10G17    30.35R
NEW BEDFORD    SUNNY     55  38  52 N9G20     30.33R
$$

MAZALL-191400-
CAPE COD AND THE ISLANDS

CITY           SKY/WX    TMP DP  RH WIND       PRES   REMARKS
FALMOUTH       MOSUNNY   54  37  54 NE12G23   30.32R
HYANNIS        SUNNY     57  38  48 N15G24    30.30R
CHATHAM        SUNNY     56  37  49 VRB6G18   30.32R
PROVINCETOWN   MOSUNNY   54  36  50 NE15G21   30.35R
NANTUCKET      SUNNY     58  41  53 N21G28    30.30R
MARTHAS VNYRD  SUNNY     56  39  53 NE12G22   30.31R
$$

MAZALL-191400-
CENTRAL AND WESTERN MASSACHUSETTS

CITY           SKY/WX    TMP DP  RH WIND       PRES   REMARKS
WORCESTER      SUNNY     45  33  63 NE7       30.35R
FITCHBURG      SUNNY     47  33  58 NE9       30.39R
ORANGE         SUNNY     46  36  68 CALM      30.37R
SPRINGFIELD    SUNNY     48  37  64 N13       30.36R
WESTFIELD      SUNNY     49  35  58 NE14      30.36R
NORTH ADAMS    MOSUNNY   43  39  86 CALM      30.37S
PITTSFIELD     SUNNY     44  36  73 E6        30.34R
$$

RIZALL-191400-
RHODE ISLAND

CITY           SKY/WX    TMP DP  RH WIND       PRES   REMARKS
PROVIDENCE     MOSUNNY   52  36  54 N17       30.35R
NEWPORT        SUNNY     55  39  54 N14       30.33R
BLOCK ISLAND   CLOUDY    55  41  58 NE15G23   30.32R
SMITHFIELD     SUNNY     48  30  49 N13       30.35R
WESTERLY       PTSUNNY   54  39  57 NE9G18    30.34R
$$

CTZALL-191400-
CONNECTICUT

CITY           SKY/WX    TMP DP  RH WIND       PRES   REMARKS
BRADLEY INTL   MOSUNNY   51  36  56 N13       30.36R
HARTFORD       SUNNY     50  39  66 N9        30.36R
BRIDGEPORT     PTSUNNY   54  40  59 NE13      30.34R
DANBURY        SUNNY     51  37  58 NE9       30.35R
GROTON         MOSUNNY   54  39  57 NE10G20   30.33R
NEW HAVEN      MOSUNNY   55  39  54 N12       30.34R
CHESTER        FAIR      50  37  62 NE7       30.34R
MERIDEN        SUNNY     51  38  60 N13       30.35R
WILLIMANTIC    SUNNY     51  36  56 NE10      30.35R
OXFORD         MOSUNNY   48  36  61 E12G18    30.35R
$$

MEZ002-015-021-024-NHZ003-005-008-011-012-014-VTZ005-008-191400-
NORTHERN NEW ENGLAND

CITY           SKY/WX    TMP DP  RH WIND       PRES   REMARKS
PORTLAND ME    MOSUNNY   47  30  51 N8        30.38R
BANGOR ME      MOSUNNY   45  31  58 N12       30.37R
CONCORD NH     SUNNY     45  37  73 VRB5      30.39R
MANCHESTER NH  MOSUNNY   47  34  60 N6        30.37R
NASHUA NH      MOSUNNY   46  35  65 NW5       30.39R
PORTSMOUTH NH  MOSUNNY   49  30  49 N8        30.37R
JAFFREY NH     SUNNY     42  34  73 MISG      30.37R
KEENE NH       SUNNY     43  30  61 N7        30.39R
BURLINGTON VT  SUNNY     41  35  79 CALM      30.41R
MT. WASHINGTON MOSUNNY   19   7  58 N28G37      N/A  WCI   1
$$

NYZ052-076-191400-
EASTERN NEW YORK

CITY           SKY/WX    TMP DP  RH WIND       PRES   REMARKS
ALBANY         MOSUNNY   46  34  62 N9        30.39R
NEW YORK CITY  MOSUNNY   57  42  57 NE16G22   30.32R
$$

ANZALL-191400-
MARINE OBSERVATIONS

STATION/POSITION TIME  TEMP    WIND        PRES    VSBY  WAVE
                       AIR SEA DIR/SP/G                  HT/PER
                 (UTC) (F)     (DEG/KT/KT) (MB)    (MI)  (FT/S)
BOSTON BUOY      1250   51 61   20/ 17/ 21 1027.6R         5/ 6
BUZZARDS BAY     1200           30/ 22/ 25 1026.2R
NANTUCKET SOUND  1250   55 67   20/ 17/ 23 1025.7R         3/ 4
MASS BAY-STELLWA 1204   51 60   10/ 16/ 19   N/A    1 7/8  5/ 6
ISLE OF SHOALS   1300   48      20/ 19/ 21 1027.8R
S OF BLOCK IS    1208      68                N/A           5/ 5
$$

......................KEY.........................
  SKY/WX - SKY CONDITION/PRESENT WEATHER
  TMP    - TEMPERATURE IN FAHRENHEIT
  DWPT   - DEWPOINT IN FAHRENHEIT
  RH     - RELATIVE HUMIDITY IN PERCENT
  WIND   - DIRECTION AND SPEED IN MPH
  PRES   - MEAN SEA LEVEL PRESSURE IN INCHES OF HG
  WCI    - WIND CHILL INDEX
  VSB    - VISIBILITY IN MILES
  HX     - HEAT INDEX
  TC     - TEMPERATURE IN CELSIUS
  VRB    - VARIABLE WIND DIRECTION
  N/A    - NOT AVAILABLE


USA.gov is the U.S. government's official web portal to all federal, state and local government web resources and services.